• In Lithuania
  • List of Countries
  • For 7 days
  • Water Temperature
  • Satellite Maps
  • Weather Map
  • Weather Widgets
  • user-avatar
    Login

    Hourly Weather Kitzbuhel

    Today, 21 September, Thursday

    Time Temperature Precipitation Wind Pressure Humidity
    00:00 +2°C° 0 mm 2 mps 679 mmHg 93%
    01:00 +3°C° 0 mm 2 mps 679 mmHg 91%
    02:00 +3°C° 0.1 mm 2 mps 679 mmHg 90%
    03:00 +2°C° 0.1 mm 2 mps 679 mmHg 90%
    04:00 +2°C° 0.1 mm 2 mps 679 mmHg 89%
    05:00 +3°C° 0 mm 2 mps 679 mmHg 88%
    06:00 +3°C° 0 mm 2 mps 679 mmHg 87%
    07:00 +4°C° 0 mm 1 mps 679 mmHg 85%
    08:00 +7°C° 0 mm 1 mps 679 mmHg 80%
    09:00 +9°C° 0 mm 1 mps 679 mmHg 75%
    10:00 +11°C° 0 mm 1 mps 680 mmHg 70%
    11:00 +12°C° 0 mm 1 mps 679 mmHg 67%
    12:00 +13°C° 0 mm 1 mps 679 mmHg 65%
    13:00 +14°C° 0 mm 2 mps 679 mmHg 62%
    14:00 +14°C° 0 mm 2 mps 679 mmHg 63%
    15:00 +13°C° 0 mm 2 mps 679 mmHg 65%
    16:00 +13°C° 0 mm 2 mps 678 mmHg 66%
    17:00 +10°C° 0 mm 2 mps 678 mmHg 74%
    18:00 +9°C° 0 mm 1 mps 678 mmHg 82%
    19:00 +6°C° 0 mm 1 mps 678 mmHg 89%
    20:00 +6°C° 0 mm 1 mps 678 mmHg 88%
    21:00 +6°C° 0 mm 1 mps 678 mmHg 87%
    22:00 +5°C° 0 mm 1 mps 678 mmHg 86%
    23:00 +5°C° 0 mm 1 mps 679 mmHg 83%

    Tomorrow, 22 September, Friday

    Time Temperature Precipitation Wind Pressure Humidity
    00:00 +5°C° 0 mm 1 mps 679 mmHg 81%
    01:00 +4°C° 0 mm 2 mps 679 mmHg 78%
    02:00 +4°C° 0 mm 2 mps 678 mmHg 76%
    03:00 +4°C° 0 mm 2 mps 678 mmHg 74%
    04:00 +4°C° 0 mm 2 mps 678 mmHg 73%
    05:00 +6°C° 0 mm 1 mps 678 mmHg 71%
    06:00 +6°C° 0 mm 1 mps 679 mmHg 70%
    07:00 +7°C° 0 mm 1 mps 679 mmHg 69%
    08:00 +10°C° 0 mm 1 mps 679 mmHg 65%
    09:00 +12°C° 0 mm 1 mps 680 mmHg 61%
    10:00 +15°C° 0 mm 1 mps 680 mmHg 58%
    11:00 +16°C° 0 mm 1 mps 680 mmHg 57%
    12:00 +18°C° 0 mm 1 mps 680 mmHg 56%
    13:00 +18°C° 0 mm 1 mps 680 mmHg 55%
    14:00 +18°C° 0 mm 1 mps 680 mmHg 58%
    15:00 +16°C° 0 mm 1 mps 680 mmHg 61%
    16:00 +16°C° 0 mm 2 mps 680 mmHg 64%
    17:00 +14°C° 0 mm 1 mps 680 mmHg 72%
    18:00 +11°C° 0 mm 1 mps 679 mmHg 80%
    19:00 +9°C° 0 mm 1 mps 679 mmHg 89%
    20:00 +9°C° 0 mm 1 mps 680 mmHg 89%
    21:00 +8°C° 0 mm 1 mps 680 mmHg 89%
    22:00 +7°C° 0 mm 2 mps 680 mmHg 89%
    23:00 +7°C° 0 mm 2 mps 680 mmHg 88%

    Day after tomorrow, 23 September, Saturday

    Time Temperature Precipitation Wind Pressure Humidity
    00:00 +7°C° 0 mm 1 mps 680 mmHg 88%
    01:00 +7°C° 0 mm 1 mps 680 mmHg 87%
    02:00 +7°C° 0 mm 1 mps 680 mmHg 87%
    03:00 +7°C° 0 mm 1 mps 680 mmHg 87%
    04:00 +7°C° 0 mm 1 mps 680 mmHg 87%
    05:00 +7°C° 0 mm 1 mps 680 mmHg 86%
    06:00 +8°C° 0 mm 1 mps 680 mmHg 86%
    07:00 +8°C° 0 mm 1 mps 680 mmHg 85%
    08:00 +11°C° 0 mm 1 mps 680 mmHg 79%
    09:00 +13°C° 0 mm 1 mps 681 mmHg 73%
    10:00 +15°C° 0 mm 1 mps 681 mmHg 67%
    11:00 +16°C° 0 mm 1 mps 681 mmHg 64%
    12:00 +18°C° 0 mm 1 mps 681 mmHg 62%
    13:00 +18°C° 0 mm 1 mps 680 mmHg 60%
    14:00 +17°C° 0 mm 2 mps 680 mmHg 64%
    15:00 +16°C° 0 mm 2 mps 680 mmHg 68%
    16:00 +16°C° 0 mm 2 mps 679 mmHg 71%
    17:00 +14°C° 0 mm 1 mps 679 mmHg 79%
    18:00 +12°C° 0 mm 1 mps 679 mmHg 87%
    19:00 +10°C° 0 mm 1 mps 679 mmHg 95%
    20:00 +10°C° 0 mm 1 mps 679 mmHg 96%
    21:00 +10°C° 0 mm 1 mps 679 mmHg 96%
    22:00 +10°C° 0 mm 1 mps 679 mmHg 97%
    23:00 +9°C° 0 mm 1 mps 679 mmHg 97%

    24 September, Sunday

    Time Temperature Precipitation Wind Pressure Humidity
    00:00 +9°C° 0 mm 1 mps 679 mmHg 97%
    01:00 +8°C° 0 mm 1 mps 678 mmHg 96%
    02:00 +8°C° 0 mm 1 mps 678 mmHg 96%
    03:00 +8°C° 0 mm 1 mps 678 mmHg 96%
    04:00 +7°C° 0 mm 1 mps 678 mmHg 96%
    05:00 +8°C° 0 mm 1 mps 678 mmHg 95%
    06:00 +8°C° 0 mm 1 mps 678 mmHg 94%
    07:00 +8°C° 0 mm 1 mps 678 mmHg 93%
    08:00 +10°C° 0.1 mm 1 mps 678 mmHg 88%
    09:00 +11°C° 0.1 mm 1 mps 678 mmHg 83%
    10:00 +13°C° 0.1 mm 1 mps 679 mmHg 79%
    11:00 +13°C° 0.2 mm 1 mps 679 mmHg 79%
    12:00 +14°C° 0.2 mm 1 mps 678 mmHg 79%
    13:00 +14°C° 0.2 mm 1 mps 678 mmHg 79%
    14:00 +14°C° 0.2 mm 1 mps 678 mmHg 80%
    15:00 +13°C° 0.2 mm 1 mps 678 mmHg 81%
    16:00 +13°C° 0.2 mm 1 mps 678 mmHg 82%
    17:00 +12°C° 0.1 mm 1 mps 678 mmHg 87%
    18:00 +11°C° 0.1 mm 1 mps 678 mmHg 91%
    19:00 +9°C° 0.1 mm 1 mps 678 mmHg 96%
    20:00 +9°C° 0 mm 1 mps 678 mmHg 96%
    21:00 +9°C° 0 mm 1 mps 678 mmHg 97%
    22:00 +9°C° 0 mm 1 mps 678 mmHg 97%
    23:00 +9°C° 0.2 mm 1 mps 678 mmHg 96%

    25 September, Monday

    Time Temperature Precipitation Wind Pressure Humidity
    00:00 +8°C° 0.2 mm 1 mps 677 mmHg 96%
    01:00 +8°C° 0.2 mm 1 mps 677 mmHg 95%
    02:00 +8°C° 0.4 mm 1 mps 677 mmHg 94%
    03:00 +8°C° 0.4 mm 1 mps 677 mmHg 94%
    04:00 +8°C° 0.4 mm 1 mps 677 mmHg 93%
    05:00 +8°C° 0.5 mm 1 mps 677 mmHg 93%
    06:00 +9°C° 0.5 mm 1 mps 677 mmHg 93%
    07:00 +9°C° 0.5 mm 1 mps 677 mmHg 93%
    08:00 +9°C° 0.5 mm 1 mps 677 mmHg 90%
    09:00 +10°C° 0.5 mm 1 mps 677 mmHg 88%
    10:00 +11°C° 0.5 mm 1 mps 677 mmHg 86%
    11:00 +12°C° 0.2 mm 1 mps 677 mmHg 84%
    12:00 +13°C° 0.2 mm 1 mps 677 mmHg 81%
    13:00 +14°C° 0.2 mm 1 mps 677 mmHg 78%
    14:00 +13°C° 0.6 mm 1 mps 677 mmHg 81%
    15:00 +13°C° 0.6 mm 1 mps 677 mmHg 84%
    16:00 +13°C° 0.6 mm 1 mps 677 mmHg 87%
    17:00 +12°C° 0.5 mm 1 mps 677 mmHg 90%
    18:00 +11°C° 0.5 mm 1 mps 677 mmHg 93%
    19:00 +10°C° 0.5 mm 1 mps 677 mmHg 96%
    20:00 +10°C° 0.2 mm 1 mps 677 mmHg 96%
    21:00 +10°C° 0.2 mm 1 mps 677 mmHg 96%
    22:00 +9°C° 0.2 mm 1 mps 677 mmHg 96%
    23:00 +9°C° 0.1 mm 1 mps 677 mmHg 96%

    26 September, Tuesday

    Time Temperature Precipitation Wind Pressure Humidity
    00:00 +9°C° 0.1 mm 1 mps 677 mmHg 95%
    01:00 +9°C° 0.1 mm 1 mps 677 mmHg 95%
    02:00 +8°C° 0.1 mm 1 mps 677 mmHg 95%
    03:00 +8°C° 0.1 mm 1 mps 677 mmHg 95%
    04:00 +8°C° 0.1 mm 1 mps 677 mmHg 95%
    05:00 +8°C° 0 mm 1 mps 677 mmHg 95%
    06:00 +8°C° 0 mm 1 mps 678 mmHg 94%
    07:00 +9°C° 0 mm 1 mps 678 mmHg 94%
    08:00 +11°C° 0 mm 1 mps 678 mmHg 87%
    09:00 +13°C° 0 mm 1 mps 678 mmHg 79%
    10:00 +15°C° 0 mm 1 mps 679 mmHg 72%
    11:00 +16°C° 0.1 mm 1 mps 679 mmHg 70%
    12:00 +16°C° 0.1 mm 1 mps 679 mmHg 68%
    13:00 +17°C° 0.1 mm 2 mps 679 mmHg 66%
    14:00 +17°C° 0.6 mm 2 mps 678 mmHg 70%
    15:00 +16°C° 0.6 mm 2 mps 678 mmHg 74%
    16:00 +16°C° 0.6 mm 2 mps 678 mmHg 79%
    17:00 +14°C° 0.3 mm 1 mps 678 mmHg 84%
    18:00 +12°C° 0.3 mm 1 mps 678 mmHg 88%
    19:00 +10°C° 0.3 mm 1 mps 678 mmHg 93%
    20:00 +10°C° 0.1 mm 1 mps 678 mmHg 93%
    21:00 +9°C° 0.1 mm 1 mps 678 mmHg 94%
    22:00 +9°C° 0.1 mm 1 mps 679 mmHg 94%
    23:00 +9°C° 0 mm 1 mps 679 mmHg 93%
    Show more